CZ-2D DEB, 44603

Orbit data source: Space-Track

CZ-2D DEB, 44603 is space debris in SSO originally from a launch on Fri, 11 Nov 2016 UTC launched from the Jiuquan Satellite Launch Center, China (JSC). Debris objects in space refer to the collection of defunct objects orbiting the Earth. Examples of debris include non-operational satellites, rocket bodies, and fragments generated from explosions, collisions, or faulty payload assembly.

Loading next visibility...
Identifier
44603, 2016-068C
Orbit
SSO
Country
Flag of CNCN / PRC
Related business
Manufacturer
Unknown
Mission
Spacecraft
Bus & Motor
Unknown
Mass
Unknown
Launch date (UTC)
2016-11-11 (9 years ago)
Launch vehicle
Unknown
Launch site
Jiuquan Satellite Launch Center, China (JSC)
Object type
Payload
Rocket body
Debris
Shape & HBR
Unknown shape, 0.1 m
Radar Cross Section
Small (<0.1 m²)

Expand to show TLE details & history
Last TLE update: 11 hours ago

TLE from 11 hours ago
0 CZ-2D DEB
1 44603U 16068C   26129.68710894  .00000281  00000-0  20048-3 0  9999
2 44603  98.5587 295.3975 0213650 342.4288  16.9563 13.94306801968760
Epoch: 2026-05-09T16:29Z
TLE epoch observation values (Epoch: 2026-05-09T16:29:26.212Z)
Latitude
0.00004°
Longitude
-179.46269°
Altitude
767.711 km
Speed
7.546 km/s
True Right ascension
19h 41m 35s
True Declination
0° 00' 00"
Sunlit
Object was in daylight at epoch
Visualization orbit readout
Latitude
Unknown
Longitude
Unknown
Altitude
Unknown
Speed
Unknown
Apparent Right ascension
Unknown
Apparent Declination
Unknown
Sunlit
N/A
Visualization observer readout
Local Sidereal Time
11:24:22
Azimuth
Unknown
Elevation
Unknown
Doppler factor
Unknown
Orbital elements
Apogee altitude
1,066.488 km
Perigee altitude
755.033 km
Semi-major axis
7,288.898 km
Eccentricity
0.02137
Inclination
98.5587°
RAAN
295.3975°
Arg. of periapsis
342.4288°
True anomaly
17.68899°
Mean anomaly
16.9563°
Eccentric anomaly
17.32075°
Mean motion
3.48779 °/min
Orbital period
103.22 mins
BSTAR
0.00020048
Loading maneuver chart data...
Computing Atmospheric mass density...
Loading historical data...
Loading historical data...
Loading historical data...
Loading historical data...
Loading historical data...
Loading historical data...
Loading historical data...

Documentation

Showing up to 5 results
|